Time,TemperatureF,DewpointF,PressureIn,WindDirection,WindDirectionDegrees,WindSpeedMPH,WindSpeedGustMPH,Humidity,HourlyPrecipIn,Conditions,Clouds,dailyrainin,SoftwareType,DateUTC
2013-07-10 00:02:00,63.8,39.0,29.82,ENE,71,0.0,0.0,41,0.00,,,0.00,weatherlink.com 1.10,2013-07-10 06:02:00,
2013-07-10 00:17:00,63.4,39.0,29.82,ENE,71,0.0,0.0,41,0.00,,,0.00,weatherlink.com 1.10,2013-07-10 06:17:00,
2013-07-10 00:32:00,64.7,39.0,29.82,ENE,71,0.0,0.0,39,0.00,,,0.00,weatherlink.com 1.10,2013-07-10 06:32:00,
2013-07-10 00:47:00,65.3,40.0,29.82,ENE,71,0.0,0.0,39,0.00,,,0.00,weatherlink.com 1.10,2013-07-10 06:47:00,
2013-07-10 01:03:00,64.9,39.0,29.82,ENE,70,0.0,0.0,39,0.00,,,0.00,weatherlink.com 1.10,2013-07-10 07:03:00,
2013-07-10 01:17:00,64.5,40.0,29.81,ENE,71,0.0,0.0,40,0.00,,,0.00,weatherlink.com 1.10,2013-07-10 07:17:00,
2013-07-10 01:32:00,63.4,40.0,29.81,NW,305,0.0,4.0,42,0.00,,,0.00,weatherlink.com 1.10,2013-07-10 07:32:00,
2013-07-10 01:48:00,63.0,39.0,29.81,NW,307,0.0,0.0,42,0.00,,,0.00,weatherlink.com 1.10,2013-07-10 07:48:00,
2013-07-10 02:03:00,63.3,38.0,29.81,NW,307,0.0,0.0,40,0.00,,,0.00,weatherlink.com 1.10,2013-07-10 08:03:00,
2013-07-10 02:18:00,64.3,39.0,29.80,NW,307,0.0,0.0,39,0.00,,,0.00,weatherlink.com 1.10,2013-07-10 08:18:00,
2013-07-10 02:33:00,63.2,38.0,29.80,NW,307,0.0,0.0,40,0.00,,,0.00,weatherlink.com 1.10,2013-07-10 08:33:00,
2013-07-10 02:48:00,62.9,40.0,29.80,NW,307,0.0,0.0,43,0.00,,,0.00,weatherlink.com 1.10,2013-07-10 08:48:00,
2013-07-10 03:03:00,62.6,39.0,29.80,NW,307,0.0,0.0,42,0.00,,,0.00,weatherlink.com 1.10,2013-07-10 09:03:00,
2013-07-10 03:18:00,61.4,39.0,29.79,NW,307,0.0,3.0,44,0.00,,,0.00,weatherlink.com 1.10,2013-07-10 09:18:00,
2013-07-10 03:33:00,59.0,39.0,29.79,North,352,0.0,0.0,48,0.00,,,0.00,weatherlink.com 1.10,2013-07-10 09:33:00,
2013-07-10 03:48:00,58.8,39.0,29.80,NE,34,0.0,5.0,49,0.00,,,0.00,weatherlink.com 1.10,2013-07-10 09:48:00,
2013-07-10 04:03:00,59.9,40.0,29.80,NE,34,0.0,0.0,48,0.00,,,0.00,weatherlink.com 1.10,2013-07-10 10:03:00,
2013-07-10 04:18:00,60.3,39.0,29.80,NE,34,0.0,0.0,46,0.00,,,0.00,weatherlink.com 1.10,2013-07-10 10:18:00,
2013-07-10 04:33:00,61.2,40.0,29.80,NE,34,0.0,0.0,45,0.00,,,0.00,weatherlink.com 1.10,2013-07-10 10:33:00,
2013-07-10 04:48:00,59.8,39.0,29.79,NE,34,0.0,0.0,47,0.00,,,0.00,weatherlink.com 1.10,2013-07-10 10:48:00,
2013-07-10 05:03:00,59.1,39.0,29.80,NE,34,0.0,0.0,48,0.00,,,0.00,weatherlink.com 1.10,2013-07-10 11:03:00,
2013-07-10 05:18:00,58.8,39.0,29.80,NE,34,0.0,0.0,49,0.00,,,0.00,weatherlink.com 1.10,2013-07-10 11:18:00,
2013-07-10 05:34:00,57.7,39.0,29.80,NE,34,0.0,0.0,50,0.00,,,0.00,weatherlink.com 1.10,2013-07-10 11:34:00,
2013-07-10 05:48:00,57.5,39.0,29.80,NE,34,0.0,0.0,50,0.00,,,0.00,weatherlink.com 1.10,2013-07-10 11:48:00,
2013-07-10 06:03:00,56.7,40.0,29.81,NNE,30,0.0,1.0,53,0.00,,,0.00,weatherlink.com 1.10,2013-07-10 12:03:00,
2013-07-10 06:18:00,57.3,40.0,29.81,ENE,65,0.0,4.0,53,0.00,,,0.00,weatherlink.com 1.10,2013-07-10 12:18:00,
2013-07-10 06:33:00,58.2,41.0,29.81,ENE,60,0.0,4.0,53,0.00,,,0.00,weatherlink.com 1.10,2013-07-10 12:33:00,
2013-07-10 06:48:00,59.2,42.0,29.81,ENE,60,0.0,0.0,53,0.00,,,0.00,weatherlink.com 1.10,2013-07-10 12:48:00,
2013-07-10 07:03:00,60.4,43.0,29.82,ENE,60,0.0,0.0,54,0.00,,,0.00,weatherlink.com 1.10,2013-07-10 13:03:00,
2013-07-10 07:18:00,62.7,45.0,29.82,ENE,60,0.0,0.0,52,0.00,,,0.00,weatherlink.com 1.10,2013-07-10 13:18:00,
2013-07-10 07:33:00,61.9,45.0,29.82,ENE,60,0.0,0.0,55,0.00,,,0.00,weatherlink.com 1.10,2013-07-10 13:33:00,
2013-07-10 07:48:00,60.5,44.0,29.82,NNE,25,0.0,0.0,54,0.00,,,0.00,weatherlink.com 1.10,2013-07-10 13:48:00,
2013-07-10 08:03:00,63.8,44.0,29.82,NNE,25,0.0,1.0,48,0.00,,,0.00,weatherlink.com 1.10,2013-07-10 14:03:00,
2013-07-10 08:18:00,64.6,45.0,29.82,NNE,19,0.0,0.0,49,0.00,,,0.00,weatherlink.com 1.10,2013-07-10 14:18:00,
2013-07-10 08:33:00,68.0,50.0,29.82,North,8,0.0,0.0,52,0.00,,,0.00,weatherlink.com 1.10,2013-07-10 14:33:00,
2013-07-10 08:48:00,69.1,46.0,29.82,WNW,283,0.0,0.0,44,0.00,,,0.00,weatherlink.com 1.10,2013-07-10 14:48:00,
2013-07-10 09:03:00,68.8,46.0,29.82,West,281,0.0,3.0,45,0.00,,,0.00,weatherlink.com 1.10,2013-07-10 15:03:00,
2013-07-10 09:18:00,68.8,46.0,29.82,SW,229,4.0,7.0,45,0.00,,,0.00,weatherlink.com 1.10,2013-07-10 15:18:00,
2013-07-10 09:33:00,69.9,48.0,29.81,SW,231,0.0,5.0,45,0.00,,,0.00,weatherlink.com 1.10,2013-07-10 15:33:00,
2013-07-10 09:48:00,70.6,47.0,29.81,South,188,0.0,4.0,43,0.00,,,0.00,weatherlink.com 1.10,2013-07-10 15:48:00,
2013-07-10 10:03:00,71.7,47.0,29.81,SW,224,0.0,6.0,42,0.00,,,0.00,weatherlink.com 1.10,2013-07-10 16:03:00,
2013-07-10 10:33:00,74.9,48.0,29.80,SW,225,0.0,1.0,38,0.00,,,0.00,weatherlink.com 1.10,2013-07-10 16:33:00,
2013-07-10 10:48:00,76.3,48.0,29.80,SW,225,0.0,0.0,37,0.00,,,0.00,weatherlink.com 1.10,2013-07-10 16:48:00,
2013-07-10 11:04:00,78.7,47.0,29.79,SW,219,0.0,6.0,33,0.00,,,0.00,weatherlink.com 1.10,2013-07-10 17:04:00,
2013-07-10 11:19:00,80.1,48.0,29.78,WSW,243,0.0,5.0,32,0.00,,,0.00,weatherlink.com 1.10,2013-07-10 17:19:00,
2013-07-10 11:34:00,80.2,48.0,29.77,SW,217,0.0,4.0,32,0.00,,,0.00,weatherlink.com 1.10,2013-07-10 17:34:00,
2013-07-10 11:49:00,82.2,47.0,29.76,West,263,0.0,9.0,29,0.00,,,0.00,weatherlink.com 1.10,2013-07-10 17:49:00,
2013-07-10 12:04:00,83.4,47.0,29.76,WNW,295,3.0,8.0,28,0.00,,,0.00,weatherlink.com 1.10,2013-07-10 18:04:00,
2013-07-10 12:19:00,83.5,47.0,29.75,South,172,0.0,11.0,28,0.00,,,0.00,weatherlink.com 1.10,2013-07-10 18:19:00,
2013-07-10 12:34:00,84.9,45.0,29.74,WNW,286,5.0,12.0,25,0.00,,,0.00,weatherlink.com 1.10,2013-07-10 18:34:00,
2013-07-10 12:49:00,86.8,42.0,29.73,NW,321,2.0,11.0,21,0.00,,,0.00,weatherlink.com 1.10,2013-07-10 18:49:00,
2013-07-10 13:04:00,87.9,39.0,29.73,West,271,0.0,15.0,18,0.00,,,0.00,weatherlink.com 1.10,2013-07-10 19:04:00,
2013-07-10 13:19:00,86.1,41.0,29.73,North,3,0.0,9.0,20,0.00,,,0.00,weatherlink.com 1.10,2013-07-10 19:19:00,
2013-07-10 13:34:00,84.4,40.0,29.72,NW,304,8.0,13.0,21,0.00,,,0.00,weatherlink.com 1.10,2013-07-10 19:34:00,
2013-07-10 13:49:00,84.8,43.0,29.72,WNW,297,0.0,12.0,23,0.00,,,0.00,weatherlink.com 1.10,2013-07-10 19:49:00,
2013-07-10 14:04:00,84.4,44.0,29.71,NW,311,3.0,6.0,24,0.00,,,0.00,weatherlink.com 1.10,2013-07-10 20:04:00,
2013-07-10 14:19:00,82.8,45.0,29.71,WSW,240,5.0,13.0,26,0.00,,,0.00,weatherlink.com 1.10,2013-07-10 20:19:00,
2013-07-10 14:34:00,81.7,45.0,29.71,SSW,198,13.0,24.0,27,0.00,,,0.00,weatherlink.com 1.10,2013-07-10 20:34:00,
2013-07-10 14:49:00,82.3,45.0,29.70,SSW,198,7.0,18.0,27,0.00,,,0.00,weatherlink.com 1.10,2013-07-10 20:49:00,
2013-07-10 15:04:00,83.2,44.0,29.70,SW,214,9.0,15.0,25,0.00,,,0.00,weatherlink.com 1.10,2013-07-10 21:04:00,
2013-07-10 15:19:00,85.1,44.0,29.69,SSE,163,3.0,13.0,24,0.00,,,0.00,weatherlink.com 1.10,2013-07-10 21:19:00,
2013-07-10 15:34:00,86.6,45.0,29.68,SSW,197,5.0,10.0,23,0.00,,,0.00,weatherlink.com 1.10,2013-07-10 21:34:00,
2013-07-10 15:49:00,87.4,44.0,29.68,SSW,197,0.0,10.0,22,0.00,,,0.00,weatherlink.com 1.10,2013-07-10 21:49:00,
2013-07-10 16:04:00,87.4,43.0,29.67,South,188,10.0,13.0,21,0.00,,,0.00,weatherlink.com 1.10,2013-07-10 22:04:00,
2013-07-10 16:19:00,87.6,44.0,29.66,WSW,243,4.0,11.0,22,0.00,,,0.00,weatherlink.com 1.10,2013-07-10 22:19:00,
2013-07-10 16:34:00,88.3,46.0,29.64,SSW,205,10.0,15.0,23,0.00,,,0.00,weatherlink.com 1.10,2013-07-10 22:34:00,
2013-07-10 16:49:00,88.3,44.0,29.64,SW,217,8.0,16.0,21,0.00,,,0.00,weatherlink.com 1.10,2013-07-10 22:49:00,
2013-07-10 17:04:00,88.3,44.0,29.63,NE,44,3.0,4.0,21,0.00,,,0.00,weatherlink.com 1.10,2013-07-10 23:04:00,
2013-07-10 17:20:00,88.6,43.0,29.62,West,269,7.0,15.0,20,0.00,,,0.00,weatherlink.com 1.10,2013-07-10 23:20:00,
2013-07-10 17:35:00,88.0,43.0,29.62,SSW,210,4.0,13.0,21,0.00,,,0.00,weatherlink.com 1.10,2013-07-10 23:35:00,
2013-07-10 17:50:00,87.4,40.0,29.61,SW,226,6.0,8.0,19,0.00,,,0.00,weatherlink.com 1.10,2013-07-10 23:50:00,
2013-07-10 18:05:00,87.8,42.0,29.61,SW,218,1.0,6.0,20,0.00,,,0.00,weatherlink.com 1.10,2013-07-11 00:05:00,
2013-07-10 18:20:00,87.3,40.0,29.61,NW,311,6.0,9.0,19,0.00,,,0.00,weatherlink.com 1.10,2013-07-11 00:20:00,
2013-07-10 18:35:00,88.6,41.0,29.60,WNW,301,2.0,5.0,19,0.00,,,0.00,weatherlink.com 1.10,2013-07-11 00:35:00,
2013-07-10 18:50:00,87.6,41.0,29.59,WNW,302,3.0,11.0,19,0.00,,,0.00,weatherlink.com 1.10,2013-07-11 00:50:00,
2013-07-10 19:05:00,86.5,38.0,29.59,West,260,4.0,9.0,18,0.00,,,0.00,weatherlink.com 1.10,2013-07-11 01:05:00,
2013-07-10 19:20:00,85.8,40.0,29.59,WNW,284,1.0,9.0,20,0.00,,,0.00,weatherlink.com 1.10,2013-07-11 01:20:00,
2013-07-10 19:35:00,84.9,42.0,29.59,WNW,285,0.0,2.0,22,0.00,,,0.00,weatherlink.com 1.10,2013-07-11 01:35:00,
2013-07-10 19:50:00,82.6,40.0,29.59,West,272,0.0,5.0,22,0.00,,,0.00,weatherlink.com 1.10,2013-07-11 01:50:00,
2013-07-10 20:05:00,80.0,40.0,29.59,North,1,0.0,1.0,24,0.00,,,0.00,weatherlink.com 1.10,2013-07-11 02:05:00,
2013-07-10 20:20:00,77.2,41.0,29.59,North,1,0.0,2.0,27,0.00,,,0.00,weatherlink.com 1.10,2013-07-11 02:20:00,
2013-07-10 20:35:00,74.6,39.0,29.59,North,359,0.0,3.0,28,0.00,,,0.00,weatherlink.com 1.10,2013-07-11 02:35:00,
2013-07-10 20:50:00,73.1,41.0,29.60,ENE,66,5.0,7.0,31,0.00,,,0.00,weatherlink.com 1.10,2013-07-11 02:50:00,
2013-07-10 21:05:00,71.7,41.0,29.60,ENE,69,4.0,7.0,33,0.00,,,0.00,weatherlink.com 1.10,2013-07-11 03:05:00,
2013-07-10 21:20:00,70.7,40.0,29.61,ENE,63,7.0,9.0,33,0.00,,,0.00,weatherlink.com 1.10,2013-07-11 03:20:00,
2013-07-10 21:35:00,70.5,40.0,29.62,ENE,63,3.0,9.0,33,0.00,,,0.00,weatherlink.com 1.10,2013-07-11 03:35:00,
2013-07-10 21:50:00,69.4,40.0,29.63,ENE,77,0.0,6.0,34,0.00,,,0.00,weatherlink.com 1.10,2013-07-11 03:50:00,
2013-07-10 22:05:00,70.2,39.0,29.63,East,81,0.0,5.0,32,0.00,,,0.00,weatherlink.com 1.10,2013-07-11 04:05:00,
2013-07-10 22:20:00,71.2,39.0,29.64,East,84,0.0,4.0,31,0.00,,,0.00,weatherlink.com 1.10,2013-07-11 04:20:00,
2013-07-10 22:35:00,69.3,38.0,29.64,East,84,0.0,0.0,32,0.00,,,0.00,weatherlink.com 1.10,2013-07-11 04:35:00,
2013-07-10 22:50:00,69.4,38.0,29.64,East,84,0.0,0.0,32,0.00,,,0.00,weatherlink.com 1.10,2013-07-11 04:50:00,
2013-07-10 23:05:00,68.2,39.0,29.64,East,84,0.0,0.0,34,0.00,,,0.00,weatherlink.com 1.10,2013-07-11 05:05:00,
2013-07-10 23:20:00,66.5,38.0,29.64,East,84,0.0,0.0,35,0.00,,,0.00,weatherlink.com 1.10,2013-07-11 05:20:00,
2013-07-10 23:35:00,68.3,38.0,29.64,East,84,0.0,0.0,33,0.00,,,0.00,weatherlink.com 1.10,2013-07-11 05:35:00,
2013-07-10 23:50:00,65.2,38.0,29.65,East,84,0.0,0.0,37,0.00,,,0.00,weatherlink.com 1.10,2013-07-11 05:50:00,